Погода в Пущино

Россия / Московская область     54°49′56″N   37°37′15″E
темп.,
°C
ветер,
м/с
пор.,
м/с
влажн.,
%
обл.,
%
осадки,
мм/ч
давл.,
гПа
погр.,
м
9 мая, вс
вс900:00+8сз4898100 0.8 1002480
03:00+5сз61095100 1.1 1005689
06:00+4сз71297100 0.6 1007713
09:00+3сз71497100 2.5 1010793
12:00+4сз71296100 1.9 1013917
15:00+7сз71380100 2.8 10141500
18:00+8ссз61169100 0.3 10161096
21:00+5сз410795 0.4 1019186
10 мая, пн
пн1000:00+3сз412845 0.0 1022259
03:00+2ссз412860 0.0 1024240
06:00+2ссз311830 0.0 1026276
09:00+8с69510 0.0 1027972
12:00+11ссв68470 0.0 10271426
15:00+13ссв68462 0.0 10261493
18:00+11св5958100 0.0 1026745
21:00+6ссв3107698 0.0 1028195
11 мая, вт
вт1100:00+5ссв4127747 0.0 1028258
03:00+5св4128155 0.0 1027253
06:00+6ссв5148219 0.0 1028367
09:00+11св6107119 0.0 1027516
12:00+16св79645 0.0 1026824
15:00+18всв696435 0.0 10251262
18:00+17в5976100 0.3 1025495
21:00+13вюв349489 1.1 102680
12 мая, ср
ср1200:00+11ю2296100 0.2 102618
03:00+11ю2292100 0.3 102556
06:00+10юз3696100 1.3 1024276
09:00+8зсз3594100 2.3 1024157
12:00+9в2392100 0.3 1025219
15:00+11всв4688100 0.3 1024442
18:00+12всв4993100 0.1 1021475
21:00+12вюв51297100 1.2 1021646
13 мая, чт
чт1300:00+11вюв389774 0.3 1021373
03:00+11юв4894100 0.3 1021282
06:00+10вюв499745 0.0 1021284
09:00+15юв46785 0.0 1021705
12:00+18юв576213 0.0 10201438
15:00+20ююв475770 0.0 10191726
18:00+19юв477238 0.1 1018474
21:00+14вюв3388100 0.1 101837